{"data":{"norad_id":56839,"intl_designator":"2023-079S","name":"STARLINK-30076","alt_names":[],"object_type":"PAYLOAD","status":"ACTIVE","operator":null,"country":"US","launch_date":"2023-06-04","launch_site_code":"AFETR","launch_vehicle":null,"mission":null,"orbit_class":"UNKNOWN","rcs_meters":null,"size_class":null,"mass_kg":null,"dimensions":null,"purposes":["comms"],"wikipedia_slug":null,"has_3d_model":false,"image_url":null,"decayed_at":null,"tle_current":{"epoch":"2026-09-20T21:40:17.113440Z","epoch_age_seconds":83233,"freshness":"FRESH","line1":"1 56839U 23079S   26263.90297585  .00000210  00000+0  17158-4 0  9994","line2":"2 56839  43.0019  84.5717 0001323 272.9987  87.0713 15.27576997182741","mean_motion":15.27576997,"eccentricity":0.0001323,"inclination_deg":43.0019,"raan_deg":84.5717,"arg_perigee_deg":272.9987,"mean_anomaly_deg":87.0713,"bstar":1.7158e-5,"rev_number":18274,"period_min":94.266934028727,"perigee_km":482.15035200655,"apogee_km":483.96582422687,"semimajor_km":6861.1950881167,"source":"CELESTRAK","updated_at":"2026-09-21T09:00:33.517678Z"}}}